Flag for Paraguay Weather past 2 weeks in Asuncion, Paraguay

Now
81 °F

Thunderstorms. Partly cloudy.


Feels Like: 86 °F
Forecast: N/A
Wind: 6 mph from East

Location: Asuncion / Aeropuerto

Current Time: Mar 3, 2015 at 8:36:07 PM

Latest Report: Mar 3, 2015 at 8:00 PM


Visibility: N/A

Pressure: 29.74 "Hg

Humidity: 84%

Dew point: 75 °F

Location of AsuncionLocation

Historic Weather in Asuncion — Graph

°F

Asuncion temperature yesterday

Maximum temperature yesterday: 91 °F (at 3:00 PM)
Minimum temperature yesterday: 77 °F (at 2:00 AM)
Average temperature yesterday: 83 °F

Past Weeks' High & Low Weather Summary

 TemperatureHumidityPressure
High95 °F (Feb 23, 2:00 PM)100% (Feb 16, 11:00 PM)30.01 "Hg (Feb 16, 11:00 PM)
Low70 °F (Feb 18, 6:00 AM)46% (Feb 18, 6:00 PM)29.56 "Hg (Feb 18, 6:00 PM)
Average81 °F79%29.84 "Hg
* Reported Feb 16 7:00 PM — Mar 3 7:00 PM, Asuncion, Weather by CustomWeather, © 2015

Note: Actual official high and low records may vary slightly from our data, if they occured in-between our weather recording intervals... More about our weather records

Advertising

Asuncion weather history for previous 24 hours

 ConditionsComfort  
Time TempWeatherWind HumidityBarometerVisibility
7:00 PM
Tue, Mar 3
82 °FBroken clouds.5 mph79%29.71 "HgN/A
6:00 PM84 °FBroken clouds.12 mph74%29.71 "HgN/A
5:00 PM91 °FPartly sunny.7 mph59%29.71 "HgN/A
4:00 PM93 °FPartly sunny.8 mph56%29.74 "HgN/A
3:00 PM93 °FPartly sunny.9 mph59%29.77 "HgN/A
2:00 PM93 °FPartly sunny.10 mph59%29.80 "HgN/A
1:00 PM93 °FPartly sunny.8 mph56%29.80 "HgN/A
12:00 PM91 °FScattered clouds.12 mph63%29.83 "HgN/A
11:00 AM90 °FPassing clouds.10 mph63%29.83 "HgN/A
10:30 AM88 °FPassing clouds.10 mph66%29.83 "HgN/A
10:00 AM86 °FScattered clouds.12 mph70%29.83 "HgN/A
9:30 AM86 °FPassing clouds.10 mph70%29.83 "HgN/A
9:00 AM84 °FSunny.10 mph74%29.83 "Hg10 mi
8:30 AM82 °FPassing clouds.7 mph79%29.83 "HgN/A
8:00 AM81 °FSunny.6 mph79%29.83 "Hg10 mi
7:00 AM77 °FSunny.5 mph89%29.80 "Hg10 mi
6:00 AM79 °FClear.6 mph84%29.77 "Hg10 mi
5:00 AM79 °FClear.7 mph84%29.77 "Hg10 mi
4:00 AM79 °FPassing clouds.7 mph84%29.77 "HgN/A
3:00 AM81 °FPassing clouds.5 mph79%29.80 "HgN/A
1:00 AM81 °FClear.3 mph84%29.80 "Hg10 mi
12:00 AM81 °FPassing clouds.5 mph84%29.80 "HgN/A
11:00 PM
Mon, Mar 2
81 °FClear.7 mph89%29.80 "Hg10 mi
10:00 PM82 °FClear.6 mph84%29.77 "Hg10 mi
9:00 PM82 °FClear.5 mph84%29.77 "Hg10 mi
8:00 PM82 °FPassing clouds.No wind84%29.74 "HgN/A
Weather by CustomWeather, © 2015

See weather overviewHow to use our weather pages